Terug naar catalogus

STARLINK-6341

ActiefCommunicatieVLEO
NORAD 56786·PAYLOAD·🇺🇸 United States

Gelanceerd May 31, 2023 vanaf Vandenberg Space Force Base

Loading…

Volgende Passages (komende 24 uur)

TLE

VersSource: CelesTrak SupGP

Epoch: Sep 14, 2026, 22:25 UTC

1 56786C 23078V   26257.93451389  .00565970  00000+0  46148-1 0  2578
2 56786  70.0009 207.3537 0003259 268.4094 292.7325 14.99102507    18

Volg STARLINK-6341 in realtime met AllMySat

Download on the App Store